DMSP 5D-2 F12 DEB

基本信息
目录编号:
43344
目录名称:
DMSP 5D-2 F12 DEB
国际标识:
1994-057G
轨道中心:
EARTH
物体状态:
在轨
发射日期:
1994-08-29 UTC
轨道信息
数据来源: 国际轨道数据
星历时间: 2026-07-12T15:13:24+0800
半长轴: 7124.793km
偏心率: 0.0008325
轨道倾角: 98.955°
近地点辐角: 35.037°
升交点赤经: 322.017°
平近点角: 325.137°
近地点: 740.724km
远地点: 752.588km
周期: 99.751分钟
每日圈数: 14.435918
详细信息
发射场:
AFWTR
轨道高度:
LEO
数据来源:
AOE Integration Group
参考系:
TEME
时间系统:
UTC
历元类型:
SGP4
2D轨道图
3D轨道图
轨道高度分析图
轨道倾角分析图
轨道综合分析图
查看轨道综合分析图